Weather History for KCJR - September, 2013

Change the Weather History Date:

Monday, September 23, 2013

  Actual Average (KOMH) Record (KOMH)
Temperature  
Mean Temperature 61 °F -  
Max Temperature 71 °F 76 °F 97 °F (2010)
Min Temperature 51 °F 53 °F 36 °F (1983)
Degree Days  
Heating Degree Days 4    
Growing Degree Days 11 (Base 50)    
Moisture  
Dew Point 52 °F    
Average Humidity 78    
Maximum Humidity 100    
Minimum Humidity 43    
Precipitation  
Precipitation 0.00 in - - ()
Sea Level Pressure  
Sea Level Pressure 30.07 in    
Wind  
Wind Speed 4 mph (NNW)    
Max Wind Speed 10 mph    
Max Gust Speed 16 mph    
Visibility 10 miles    
Events      
Averages and records for this station are not official NWS values.
T = Trace of Precipitation, MM = Missing Value Source: NWS Daily Summary

Daily Weather History Graph

Daily Weather History Graph

Search for Another Location

Airport or City:

Trip Planner

Search our weather history database for the weather conditions in past years. The results will help you decide how hot, cold, wet, or windy it might be!

Date:

Astronomy

Sep. 23, 2013 Rise Set
Actual Time 7:00 AM EDT 7:06 PM EDT
Civil Twilight 6:33 AM EDT 7:32 PM EDT
Nautical Twilight 6:02 AM EDT 8:03 PM EDT
Astronomical Twilight 5:31 AM EDT 8:35 PM EDT
Moon 9:40 PM EDT (9/23) 11:14 AM EDT (9/23)
Length of Visible Light 12h 59m
Length of Day
12h 06m
Waning Gibbous, 81% of the Moon is Illuminated
Sep 23
Waning Gibbous
Sep 26
Last Quarter
Oct 4
New
Oct 11
First Quarter
Oct 18
Full

Hourly Weather History & Observations

Time (EDT) Temp. Dew Point Humidity Pressure Visibility Wind Dir Wind Speed Gust Speed Precip Events Conditions
12:17 AM 59.0 °F 53.6 °F 82% 29.98 in 10.0 mi North 4.6 mph - N/A   Clear
12:35 AM 59.0 °F 53.6 °F 82% 29.98 in 10.0 mi NNW 5.8 mph - N/A   Clear
12:55 AM 57.2 °F 53.6 °F 88% 29.98 in 10.0 mi NNW 4.6 mph - N/A   Clear
1:17 AM 57.2 °F 53.6 °F 88% 29.98 in 10.0 mi Calm Calm - N/A   Clear
1:35 AM 55.4 °F 55.4 °F 100% 29.99 in 10.0 mi Calm Calm - N/A   Clear
1:56 AM 55.4 °F 55.4 °F 100% 30.00 in 10.0 mi Calm Calm - N/A   Clear
2:17 AM 57.2 °F 57.2 °F 100% 30.00 in 10.0 mi NW 3.5 mph - N/A   Clear
2:36 AM 53.6 °F 53.6 °F 100% 30.01 in 10.0 mi Calm Calm - N/A   Clear
2:56 AM 53.6 °F 53.6 °F 100% 30.01 in 10.0 mi Calm Calm - N/A   Clear
3:15 AM 53.6 °F 53.6 °F 100% 30.01 in 10.0 mi Calm Calm - N/A   Clear
3:36 AM 53.6 °F 53.6 °F 100% 30.02 in 10.0 mi Calm Calm - N/A   Clear
3:55 AM 51.8 °F 51.8 °F 100% 30.02 in 10.0 mi NNW 3.5 mph - N/A   Clear
4:16 AM 55.4 °F 55.4 °F 100% 30.02 in 10.0 mi NW 4.6 mph - N/A   Clear
4:36 AM 55.4 °F 55.4 °F 100% 30.02 in 10.0 mi NNW 3.5 mph - N/A   Clear
4:56 AM 55.4 °F 55.4 °F 100% 30.02 in 10.0 mi NNW 4.6 mph - N/A   Clear
5:16 AM 53.6 °F 53.6 °F 100% 30.03 in 10.0 mi Calm Calm - N/A   Clear
5:35 AM 53.6 °F 53.6 °F 100% 30.03 in 10.0 mi Calm Calm - N/A   Clear
5:56 AM 53.6 °F 53.6 °F 100% 30.04 in 10.0 mi NNW 3.5 mph - N/A   Clear
6:15 AM 55.4 °F 55.4 °F 100% 30.05 in - North 4.6 mph - N/A   Mostly Cloudy
6:36 AM 55.4 °F 55.4 °F 100% 30.06 in 10.0 mi Calm Calm - N/A   Overcast
6:57 AM 55.4 °F 55.4 °F 100% 30.07 in 10.0 mi Calm Calm - N/A   Overcast
7:15 AM 57.2 °F 57.2 °F 100% 30.07 in 10.0 mi Calm Calm - N/A   Overcast
7:37 AM 57.2 °F 55.4 °F 94% 30.08 in 10.0 mi NW 4.6 mph - N/A   Mostly Cloudy
7:56 AM 59.0 °F 55.4 °F 88% 30.09 in 10.0 mi NW 5.8 mph - N/A   Scattered Clouds
8:15 AM 60.8 °F 53.6 °F 77% 30.09 in 10.0 mi North 5.8 mph - N/A   Scattered Clouds
8:35 AM 60.8 °F 51.8 °F 72% 30.09 in 10.0 mi North 8.1 mph - N/A   Clear
8:55 AM 62.6 °F 51.8 °F 68% 30.10 in 10.0 mi North 8.1 mph - N/A   Mostly Cloudy
9:15 AM 62.6 °F 51.8 °F 68% 30.11 in 10.0 mi North 8.1 mph - N/A   Overcast
9:35 AM 62.6 °F 51.8 °F 68% 30.11 in 10.0 mi North 8.1 mph - N/A   Mostly Cloudy
9:55 AM 62.6 °F 51.8 °F 68% 30.11 in 10.0 mi NNW 8.1 mph - N/A   Overcast
10:37 AM 62.6 °F 46.4 °F 55% 30.12 in 10.0 mi North 8.1 mph - N/A   Mostly Cloudy
10:55 AM 64.4 °F 48.2 °F 56% 30.12 in 10.0 mi North 8.1 mph - N/A   Mostly Cloudy
11:17 AM 64.4 °F 48.2 °F 56% 30.12 in 10.0 mi North 6.9 mph - N/A   Overcast
11:35 AM 66.2 °F 48.2 °F 52% 30.12 in 10.0 mi NNE 9.2 mph - N/A   Overcast
11:55 AM 66.2 °F 48.2 °F 52% 30.11 in 10.0 mi North 4.6 mph - N/A   Mostly Cloudy
12:15 PM 66.2 °F 48.2 °F 52% 30.11 in 10.0 mi NNW 9.2 mph - N/A   Mostly Cloudy
12:35 PM 66.2 °F 48.2 °F 52% 30.10 in 10.0 mi WNW 6.9 mph - N/A   Overcast
12:58 PM 66.2 °F 48.2 °F 52% 30.10 in 10.0 mi North 9.2 mph - N/A   Overcast
1:17 PM 66.2 °F 48.2 °F 52% 30.09 in 10.0 mi NNW 8.1 mph - N/A   Scattered Clouds
1:35 PM 66.2 °F 48.2 °F 52% 30.09 in 10.0 mi North 9.2 mph - N/A   Mostly Cloudy
1:55 PM 68.0 °F 48.2 °F 49% 30.08 in 10.0 mi North 4.6 mph - N/A   Scattered Clouds
2:15 PM 68.0 °F 48.2 °F 49% 30.08 in 10.0 mi North 9.2 mph - N/A   Scattered Clouds
2:37 PM 69.8 °F 48.2 °F 46% 30.07 in 10.0 mi North 6.9 mph 16.1 mph N/A   Scattered Clouds
2:55 PM 69.8 °F 48.2 °F 46% 30.07 in 10.0 mi NNE 10.4 mph - N/A   Clear
3:15 PM 69.8 °F 48.2 °F 46% 30.07 in 10.0 mi NNW 8.1 mph - N/A   Clear
3:35 PM 69.8 °F 48.2 °F 46% 30.06 in 10.0 mi North 8.1 mph - N/A   Clear
3:55 PM 69.8 °F 48.2 °F 46% 30.06 in 10.0 mi Calm Calm - N/A   Clear
4:17 PM 71.6 °F 48.2 °F 43% 30.05 in 10.0 mi NNW 4.6 mph - N/A   Clear
4:35 PM 71.6 °F 48.2 °F 43% 30.05 in 10.0 mi NNE 4.6 mph - N/A   Clear
4:55 PM 71.6 °F 50.0 °F 46% 30.05 in 10.0 mi North 5.8 mph - N/A   Clear
5:15 PM 69.8 °F 48.2 °F 46% 30.05 in 10.0 mi North 8.1 mph - N/A   Clear
5:37 PM 69.8 °F 48.2 °F 46% 30.05 in 10.0 mi NNW 5.8 mph - N/A   Clear
5:57 PM 69.8 °F 48.2 °F 46% 30.06 in 10.0 mi NNE 4.6 mph - N/A   Clear
6:17 PM 68.0 °F 50.0 °F 52% 30.06 in 10.0 mi North 5.8 mph - N/A   Clear
6:37 PM 66.2 °F 53.6 °F 64% 30.07 in 10.0 mi Calm Calm - N/A   Clear
6:55 PM 64.4 °F 53.6 °F 68% 30.07 in 10.0 mi Calm Calm - N/A   Clear
7:15 PM 60.8 °F 60.8 °F 100% 30.08 in 10.0 mi Calm Calm - N/A   Clear
7:35 PM 59.0 °F 59.0 °F 100% 30.07 in 10.0 mi Calm Calm - N/A   Clear
7:55 PM 57.2 °F 57.2 °F 100% 30.08 in 10.0 mi Calm Calm - N/A   Clear
8:15 PM 55.4 °F 55.4 °F 100% 30.08 in 10.0 mi Calm Calm - N/A   Clear
8:38 PM 55.4 °F 55.4 °F 100% 30.09 in 10.0 mi Calm Calm - N/A   Clear
8:55 PM 53.6 °F 53.6 °F 100% 30.09 in 10.0 mi Calm Calm - N/A   Clear
9:15 PM 53.6 °F 53.6 °F 100% 30.10 in 10.0 mi Calm Calm - N/A   Clear
9:35 PM 53.6 °F 53.6 °F 100% 30.10 in 10.0 mi Calm Calm - N/A   Clear
9:57 PM 53.6 °F 53.6 °F 100% 30.11 in 7.0 mi Calm Calm - N/A   Clear
10:15 PM 51.8 °F 51.8 °F 100% 30.11 in 7.0 mi Calm Calm - N/A   Clear
10:35 PM 51.8 °F 51.8 °F 100% 30.11 in 10.0 mi Calm Calm - N/A   Clear
10:55 PM 53.6 °F 53.6 °F 100% 30.11 in 10.0 mi Calm Calm - N/A   Clear
11:15 PM 51.8 °F 51.8 °F 100% 30.11 in 10.0 mi Calm Calm - N/A   Clear
11:37 PM 51.8 °F 51.8 °F 100% 30.11 in 10.0 mi Calm Calm - N/A   Clear
11:55 PM 51.8 °F 51.8 °F 100% 30.12 in 10.0 mi Calm Calm - N/A   Clear